User: anonymous   Login
Location: Kernascl�den
(48.0062°N, 3.3198°W)
Time: 13:59:26
(UTC+00:00)
Language:

Cosmos 2344 - Orbit

View from above orbital plane
View from above orbital plane
View from above satellite
View from above satellite

Ground track
Ground track

The orbit data is extracted from the following two-line orbital elements,

1 24827U 97028A   21125.91897278  .00000140  00000-0  22586-2 0  9991
2 24827  63.3184  96.6780 1035752  45.9406 347.9887 11.07950594967556
Epoch (UTC): 05 May 2021 22:03:19
Eccentricity: 0.1035752
inclination: 63.3184°
perigee height: 1241 km
apogee height: 3001 km
right ascension of ascending node: 96.6780°
argument of perigee: 45.9406°
revolutions per day: 11.07950594
mean anomaly at epoch: 347.9887°
orbit number at epoch: 96755

The dashed part of the orbit path shows where the satellite is in the earth's shadow,  

DLR